| time (UTC) | temp F | wind direction | speed MPH | gust MPH | rain 1hr in | rain 24hr in | rain mn in | humidity % | barometer mb |
| 20260507053722 | 45 | 125 | 0.0 | 0.0 | 0.00 | 0.00 | 0.00 | 96 | 1018.7 |
| 20260507053219 | 45 | 125 | 0.0 | 0.0 | 0.00 | 0.00 | 0.00 | 96 | 1018.7 |
| 20260507052718 | 45 | 125 | 0.0 | 0.0 | 0.00 | 0.00 | 0.00 | 96 | 1018.9 |
| 20260507052214 | 45 | 125 | 0.0 | 0.0 | 0.00 | 0.00 | 0.00 | 95 | 1018.7 |
| 20260507051712 | 46 | 125 | 0.0 | 0.0 | 0.00 | 0.00 | 0.00 | 94 | 1018.7 |
| 20260507051209 | 45 | 125 | 0.0 | 0.0 | 0.00 | 0.00 | 0.00 | 93 | 1018.5 |
| 20260507050705 | 45 | 125 | 0.0 | 0.0 | 0.00 | 0.00 | 0.00 | 92 | 1018.7 |
| 20260507050202 | 45 | 125 | 0.0 | 0.0 | 0.00 | 0.00 | 0.00 | 92 | 1018.5 |
| 20260507045659 | 45 | 125 | 0.0 | 0.0 | 0.00 | 0.00 | 0.00 | 93 | 1018.6 |
| 20260507045156 | 45 | 125 | 0.0 | 0.0 | 0.00 | 0.00 | 0.00 | 92 | 1018.7 |
| 20260507044652 | 46 | 125 | 0.0 | 0.0 | 0.00 | 0.00 | 0.00 | 92 | 1019.0 |
| 20260507044149 | 46 | 125 | 0.0 | 0.0 | 0.00 | 0.00 | 0.00 | 91 | 1018.8 |
| 20260507043645 | 46 | 125 | 0.0 | 0.0 | 0.00 | 0.00 | 0.00 | 91 | 1018.5 |
| 20260507043142 | 46 | 124 | 0.0 | 0.0 | 0.00 | 0.00 | 0.00 | 91 | 1018.7 |
| 20260507042639 | 46 | 125 | 0.0 | 0.0 | 0.00 | 0.00 | 0.00 | 91 | 1018.9 |
| 20260507042134 | 46 | 125 | 0.0 | 0.0 | 0.00 | 0.00 | 0.00 | 90 | 1018.5 |
| 20260507041630 | 46 | 125 | 0.0 | 0.0 | 0.00 | 0.00 | 0.00 | 90 | 1018.6 |
| 20260507041121 | 47 | 125 | 0.0 | 0.0 | 0.00 | 0.00 | 0.00 | 88 | 1018.6 |
| 20260507040618 | 47 | 125 | 0.0 | 0.0 | 0.00 | 0.00 | 0.00 | 88 | 1018.7 |
| 20260507040115 | 47 | 125 | 0.0 | 0.0 | 0.00 | 0.00 | 0.00 | 87 | 1018.5 |
| 20260507035611 | 48 | 124 | 0.0 | 0.0 | 0.00 | 0.00 | 0.00 | 85 | 1018.5 |
| 20260507035108 | 48 | 124 | 0.0 | 0.0 | 0.00 | 0.00 | 0.00 | 84 | 1018.4 |
| 20260507034604 | 48 | 124 | 0.0 | 0.0 | 0.00 | 0.00 | 0.00 | 84 | 1018.4 |
| 20260507034102 | 48 | 124 | 0.0 | 0.0 | 0.00 | 0.00 | 0.00 | 83 | 1018.3 |
| 20260507033600 | 49 | 125 | 0.0 | 0.0 | 0.00 | 0.00 | 0.00 | 81 | 1018.4 |
| 20260507033056 | 50 | 125 | 0.0 | 0.0 | 0.00 | 0.00 | 0.00 | 79 | 1018.1 |
| 20260507032554 | 50 | 124 | 0.0 | 0.0 | 0.00 | 0.00 | 0.00 | 78 | 1018.3 |
| 20260507032050 | 50 | 124 | 0.0 | 1.0 | 0.00 | 0.00 | 0.00 | 77 | 1018.4 |
| 20260507031547 | 49 | 124 | 0.0 | 0.0 | 0.00 | 0.00 | 0.00 | 80 | 1018.5 |
| 20260507031044 | 49 | 125 | 0.0 | 0.0 | 0.00 | 0.00 | 0.00 | 79 | 1018.4 |
| 20260507030540 | 49 | 124 | 0.0 | 0.0 | 0.00 | 0.00 | 0.00 | 78 | 1018.2 |
| 20260507030038 | 50 | 124 | 0.0 | 0.0 | 0.00 | 0.00 | 0.00 | 76 | 1018.1 |
| 20260507025535 | 51 | 124 | 0.0 | 0.0 | 0.00 | 0.00 | 0.00 | 74 | 1018.2 |
| 20260507025032 | 52 | 124 | 0.0 | 0.0 | 0.00 | 0.00 | 0.00 | 72 | 1018.1 |
| 20260507024530 | 52 | 123 | 0.0 | 0.0 | 0.00 | 0.00 | 0.00 | 72 | 1018.0 |
| 20260507024027 | 52 | 125 | 0.0 | 0.0 | 0.00 | 0.00 | 0.00 | 72 | 1018.1 |
| 20260507023522 | 54 | 108 | 1.0 | 1.0 | 0.00 | 0.00 | 0.00 | 67 | 1018.2 |
| 20260507023021 | 54 | 68 | 2.0 | 2.0 | 0.00 | 0.00 | 0.00 | 65 | 1018.1 |
| 20260507022517 | 53 | 125 | 1.0 | 1.0 | 0.00 | 0.00 | 0.00 | 65 | 1018.0 |
| 20260507022012 | 54 | 127 | 0.0 | 1.0 | 0.00 | 0.00 | 0.00 | 65 | 1018.0 |
| 20260507021508 | 54 | 128 | 1.0 | 1.0 | 0.00 | 0.00 | 0.00 | 64 | 1018.0 |
| 20260507021005 | 55 | 56 | 2.0 | 2.0 | 0.00 | 0.00 | 0.00 | 60 | 1017.8 |
| 20260507020502 | 55 | 49 | 2.0 | 2.0 | 0.00 | 0.00 | 0.00 | 60 | 1017.5 |
| 20260507015959 | 55 | 92 | 2.0 | 2.0 | 0.00 | 0.00 | 0.00 | 60 | 1017.5 |
| 20260507015458 | 54 | 125 | 1.0 | 2.0 | 0.00 | 0.00 | 0.00 | 62 | 1017.6 |
| 20260507014955 | 54 | 132 | 1.0 | 1.0 | 0.00 | 0.00 | 0.00 | 63 | 1017.4 |
| 20260507014451 | 54 | 134 | 0.0 | 0.0 | 0.00 | 0.00 | 0.00 | 64 | 1017.4 |
| 20260507013947 | 55 | 134 | 0.0 | 0.0 | 0.00 | 0.00 | 0.00 | 62 | 1017.2 |
| 20260507013444 | 55 | 61 | 2.0 | 2.0 | 0.00 | 0.00 | 0.00 | 61 | 1017.4 |
| 20260507012941 | 55 | 139 | 1.0 | 1.0 | 0.00 | 0.00 | 0.00 | 59 | 1017.3 |
| 20260507012438 | 56 | 139 | 0.0 | 1.0 | 0.00 | 0.00 | 0.00 | 57 | 1017.1 |
| 20260507011934 | 56 | 141 | 0.0 | 0.0 | 0.00 | 0.00 | 0.00 | 57 | 1017.0 |
| 20260507011431 | 56 | 142 | 1.0 | 1.0 | 0.00 | 0.00 | 0.00 | 56 | 1016.9 |
| 20260507010926 | 57 | 142 | 0.0 | 0.0 | 0.00 | 0.00 | 0.00 | 55 | 1017.0 |
| 20260507010421 | 58 | 143 | 0.0 | 1.0 | 0.00 | 0.00 | 0.00 | 54 | 1017.0 |
| 20260507005918 | 58 | 88 | 2.0 | 2.0 | 0.00 | 0.00 | 0.00 | 52 | 1016.7 |
| 20260507005415 | 58 | 135 | 1.0 | 1.0 | 0.00 | 0.00 | 0.00 | 52 | 1016.7 |
| 20260507004912 | 59 | 57 | 3.0 | 3.0 | 0.00 | 0.00 | 0.00 | 51 | 1016.8 |
| 20260507004409 | 59 | 113 | 2.0 | 3.0 | 0.00 | 0.00 | 0.00 | 50 | 1016.9 |
| 20260507003906 | 59 | 34 | 3.0 | 4.0 | 0.00 | 0.00 | 0.00 | 49 | 1016.8 |
| 20260507003401 | 59 | 101 | 2.0 | 2.0 | 0.00 | 0.00 | 0.00 | 49 | 1016.6 |
| 20260507002857 | 60 | 73 | 2.0 | 3.0 | 0.00 | 0.00 | 0.00 | 48 | 1016.9 |
| 20260507002353 | 60 | 40 | 4.0 | 4.0 | 0.00 | 0.00 | 0.00 | 49 | 1016.7 |
| 20260507001850 | 60 | 39 | 5.0 | 7.0 | 0.00 | 0.00 | 0.00 | 49 | 1016.7 |
| 20260507001347 | 60 | 32 | 5.0 | 7.0 | 0.00 | 0.00 | 0.00 | 49 | 1016.8 |
| 20260507000844 | 60 | 30 | 6.0 | 7.0 | 0.00 | 0.00 | 0.00 | 48 | 1016.5 |
| 20260507000339 | 60 | 26 | 10.0 | 13.0 | 0.00 | 0.00 | 0.00 | 47 | 1016.4 |
| 20260506235836 | 60 | 3 | 7.0 | 8.0 | 0.00 | 0.00 | 0.00 | 46 | 1016.5 |
| 20260506235333 | 60 | 24 | 10.0 | 10.0 | 0.00 | 0.00 | 0.00 | 47 | 1016.4 |
| 20260506234829 | 60 | 28 | 10.0 | 14.0 | 0.00 | 0.00 | 0.00 | 47 | 1016.3 |
| 20260506234326 | 60 | 14 | 8.0 | 10.0 | 0.00 | 0.00 | 0.00 | 47 | 1016.2 |
| 20260506233824 | 61 | 16 | 9.0 | 9.0 | 0.00 | 0.00 | 0.00 | 47 | 1016.0 |
| 20260506233319 | 61 | 33 | 10.0 | 14.0 | 0.00 | 0.00 | 0.00 | 46 | 1015.8 |
| 20260506232817 | 62 | 334 | 8.0 | 10.0 | 0.00 | 0.00 | 0.00 | 45 | 1015.9 |
| 20260506232312 | 62 | 6 | 11.0 | 16.0 | 0.00 | 0.00 | 0.00 | 46 | 1016.1 |
| 20260506231809 | 61 | 18 | 10.0 | 11.0 | 0.00 | 0.00 | 0.00 | 47 | 1016.0 |
| 20260506231307 | 61 | 29 | 7.0 | 10.0 | 0.00 | 0.00 | 0.00 | 47 | 1016.0 |
| 20260506230804 | 62 | 14 | 11.0 | 13.0 | 0.00 | 0.00 | 0.00 | 46 | 1015.7 |
| 20260506230301 | 62 | 28 | 8.0 | 11.0 | 0.00 | 0.00 | 0.00 | 46 | 1015.8 |
| 20260506225757 | 62 | 14 | 6.0 | 7.0 | 0.00 | 0.00 | 0.00 | 45 | 1015.8 |
| 20260506225254 | 63 | 13 | 10.0 | 11.0 | 0.00 | 0.00 | 0.00 | 44 | 1016.0 |
| 20260506224751 | 62 | 48 | 5.0 | 7.0 | 0.00 | 0.00 | 0.00 | 45 | 1015.7 |
| 20260506224248 | 62 | 25 | 6.0 | 8.0 | 0.00 | 0.00 | 0.00 | 45 | 1015.7 |
| 20260506223744 | 62 | 22 | 7.0 | 8.0 | 0.00 | 0.00 | 0.00 | 44 | 1015.6 |
| 20260506223239 | 62 | 48 | 7.0 | 9.0 | 0.00 | 0.00 | 0.00 | 46 | 1015.5 |
| 20260506222731 | 62 | 44 | 7.0 | 9.0 | 0.00 | 0.00 | 0.00 | 46 | 1015.8 |
| 20260506222227 | 62 | 35 | 10.0 | 13.0 | 0.00 | 0.00 | 0.00 | 45 | 1015.8 |
| 20260506221725 | 62 | 68 | 4.0 | 6.0 | 0.00 | 0.00 | 0.00 | 44 | 1015.7 |
| 20260506221223 | 62 | 40 | 7.0 | 8.0 | 0.00 | 0.00 | 0.00 | 44 | 1015.8 |
| 20260506220720 | 62 | 48 | 10.0 | 13.0 | 0.00 | 0.00 | 0.00 | 45 | 1015.9 |
| 20260506220214 | 61 | 28 | 8.0 | 13.0 | 0.00 | 0.00 | 0.00 | 44 | 1016.0 |
| 20260506215711 | 61 | 355 | 9.0 | 10.0 | 0.00 | 0.00 | 0.00 | 46 | 1016.0 |
| 20260506215207 | 61 | 57 | 12.0 | 14.0 | 0.00 | 0.00 | 0.00 | 44 | 1015.9 |
| 20260506214704 | 61 | 41 | 7.0 | 9.0 | 0.00 | 0.00 | 0.00 | 45 | 1016.0 |
| 20260506214201 | 62 | 27 | 13.0 | 15.0 | 0.00 | 0.00 | 0.00 | 44 | 1015.9 |
| 20260506213659 | 62 | 7 | 8.0 | 10.0 | 0.00 | 0.00 | 0.00 | 45 | 1016.0 |
| 20260506213156 | 62 | 25 | 5.0 | 8.0 | 0.00 | 0.00 | 0.00 | 46 | 1016.3 |
| 20260506212653 | 62 | 22 | 9.0 | 10.0 | 0.00 | 0.00 | 0.00 | 46 | 1015.8 |
| 20260506212148 | 63 | 49 | 10.0 | 11.0 | 0.00 | 0.00 | 0.00 | 44 | 1015.8 |
| 20260506211644 | 62 | 326 | 4.0 | 6.0 | 0.00 | 0.00 | 0.00 | 47 | 1015.8 |
| 20260506211141 | 62 | 54 | 10.0 | 14.0 | 0.00 | 0.00 | 0.00 | 46 | 1016.1 |
| 20260506210638 | 62 | 3 | 6.0 | 7.0 | 0.00 | 0.00 | 0.00 | 47 | 1015.9 |
| 20260506210134 | 62 | 46 | 8.0 | 10.0 | 0.00 | 0.00 | 0.00 | 46 | 1016.1 |
| 20260506205631 | 62 | 40 | 9.0 | 10.0 | 0.00 | 0.00 | 0.00 | 46 | 1016.2 |
| 20260506205126 | 62 | 33 | 9.0 | 10.0 | 0.00 | 0.00 | 0.00 | 46 | 1016.1 |
| 20260506204625 | 62 | 322 | 10.0 | 11.0 | 0.00 | 0.00 | 0.00 | 45 | 1016.3 |
| 20260506204121 | 62 | 19 | 8.0 | 10.0 | 0.00 | 0.00 | 0.00 | 46 | 1016.4 |
| 20260506203620 | 61 | 350 | 8.0 | 10.0 | 0.00 | 0.00 | 0.00 | 45 | 1016.2 |
| 20260506203116 | 61 | 29 | 9.0 | 11.0 | 0.00 | 0.00 | 0.00 | 44 | 1016.5 |
| 20260506202614 | 62 | 47 | 6.0 | 10.0 | 0.00 | 0.00 | 0.00 | 43 | 1016.7 |
| 20260506202110 | 61 | 26 | 9.0 | 11.0 | 0.00 | 0.00 | 0.00 | 44 | 1016.7 |
| 20260506201607 | 62 | 8 | 7.0 | 9.0 | 0.00 | 0.00 | 0.00 | 43 | 1016.5 |
| 20260506201104 | 61 | 3 | 14.0 | 16.0 | 0.00 | 0.00 | 0.00 | 41 | 1016.7 |
| 20260506200600 | 61 | 36 | 10.0 | 18.0 | 0.00 | 0.00 | 0.00 | 46 | 1016.7 |
| 20260506200057 | 62 | 40 | 9.0 | 11.0 | 0.00 | 0.00 | 0.00 | 47 | 1016.8 |
| 20260506195553 | 62 | 50 | 10.0 | 11.0 | 0.00 | 0.00 | 0.00 | 46 | 1016.8 |
| 20260506195050 | 61 | 7 | 8.0 | 9.0 | 0.00 | 0.00 | 0.00 | 47 | 1016.7 |
| 20260506194548 | 61 | 275 | 5.0 | 8.0 | 0.00 | 0.00 | 0.00 | 48 | 1016.7 |
| 20260506194043 | 61 | 354 | 6.0 | 7.0 | 0.00 | 0.00 | 0.00 | 46 | 1016.8 |
| 20260506193541 | 60 | 358 | 12.0 | 16.0 | 0.00 | 0.00 | 0.00 | 46 | 1016.8 |
| 20260506193039 | 61 | 44 | 9.0 | 18.0 | 0.00 | 0.00 | 0.00 | 47 | 1016.9 |
| 20260506192535 | 61 | 29 | 5.0 | 6.0 | 0.00 | 0.00 | 0.00 | 48 | 1017.1 |
| 20260506192031 | 62 | 31 | 8.0 | 9.0 | 0.00 | 0.00 | 0.00 | 47 | 1017.1 |
| 20260506191528 | 61 | 37 | 9.0 | 11.0 | 0.00 | 0.00 | 0.00 | 47 | 1017.1 |
| 20260506191024 | 60 | 44 | 10.0 | 15.0 | 0.00 | 0.00 | 0.00 | 47 | 1017.5 |
| 20260506190521 | 62 | 52 | 4.0 | 6.0 | 0.00 | 0.00 | 0.00 | 44 | 1017.3 |
| 20260506190019 | 60 | 5 | 13.0 | 17.0 | 0.00 | 0.00 | 0.00 | 46 | 1017.2 |
| 20260506185515 | 60 | 19 | 13.0 | 16.0 | 0.00 | 0.00 | 0.00 | 44 | 1017.4 |
| 20260506185012 | 60 | 26 | 11.0 | 15.0 | 0.00 | 0.00 | 0.00 | 47 | 1017.2 |
| 20260506184509 | 60 | 19 | 16.0 | 19.0 | 0.00 | 0.00 | 0.00 | 46 | 1017.4 |
| 20260506184006 | 61 | 8 | 7.0 | 9.0 | 0.00 | 0.00 | 0.00 | 47 | 1017.5 |
| 20260506183503 | 60 | 34 | 3.0 | 3.0 | 0.00 | 0.00 | 0.00 | 46 | 1017.4 |
| 20260506182959 | 60 | 53 | 4.0 | 6.0 | 0.00 | 0.00 | 0.00 | 47 | 1018.0 |
| 20260506182456 | 61 | 31 | 12.0 | 15.0 | 0.00 | 0.00 | 0.00 | 46 | 1017.8 |
| 20260506181953 | 60 | 107 | 5.0 | 7.0 | 0.00 | 0.00 | 0.00 | 48 | 1017.8 |
| 20260506181451 | 60 | 11 | 6.0 | 8.0 | 0.00 | 0.00 | 0.00 | 48 | 1017.9 |
| 20260506180948 | 59 | 17 | 13.0 | 15.0 | 0.00 | 0.00 | 0.00 | 48 | 1018.2 |
| 20260506180444 | 60 | 353 | 8.0 | 10.0 | 0.00 | 0.00 | 0.00 | 46 | 1018.1 |
| 20260506175941 | 59 | 260 | 4.0 | 6.0 | 0.00 | 0.00 | 0.00 | 47 | 1018.5 |
| 20260506175438 | 59 | 39 | 10.0 | 11.0 | 0.00 | 0.00 | 0.00 | 48 | 1018.6 |
| 20260506174934 | 60 | 49 | 5.0 | 6.0 | 0.00 | 0.00 | 0.00 | 46 | 1018.3 |
| 20260506174432 | 59 | 37 | 11.0 | 11.0 | 0.00 | 0.00 | 0.00 | 48 | 1018.4 |
| 20260506173923 | 60 | 48 | 2.0 | 3.0 | 0.00 | 0.00 | 0.00 | 48 | 1018.6 |
| 20260506173420 | 59 | 25 | 4.0 | 6.0 | 0.00 | 0.00 | 0.00 | 49 | 1018.5 |
| 20260506172917 | 59 | 11 | 6.0 | 8.0 | 0.00 | 0.00 | 0.00 | 48 | 1018.5 |
| 20260506172414 | 59 | 38 | 9.0 | 13.0 | 0.00 | 0.00 | 0.00 | 49 | 1018.7 |
| 20260506171911 | 57 | 28 | 4.0 | 6.0 | 0.00 | 0.00 | 0.00 | 52 | 1018.5 |
| 20260506171408 | 58 | 33 | 9.0 | 10.0 | 0.00 | 0.00 | 0.00 | 52 | 1018.5 |
| 20260506170906 | 59 | 128 | 3.0 | 3.0 | 0.00 | 0.00 | 0.00 | 50 | 1018.7 |
| 20260506170401 | 59 | 98 | 4.0 | 4.0 | 0.00 | 0.00 | 0.00 | 51 | 1018.8 |
| 20260506165855 | 58 | 32 | 6.0 | 8.0 | 0.00 | 0.00 | 0.00 | 52 | 1018.7 |
| 20260506165352 | 57 | 35 | 10.0 | 11.0 | 0.00 | 0.00 | 0.00 | 52 | 1018.9 |
| 20260506164848 | 57 | 28 | 7.0 | 8.0 | 0.00 | 0.00 | 0.00 | 53 | 1018.9 |
| 20260506164345 | 56 | 359 | 5.0 | 7.0 | 0.00 | 0.00 | 0.00 | 55 | 1018.8 |
| 20260506163843 | 56 | 8 | 11.0 | 13.0 | 0.00 | 0.00 | 0.00 | 56 | 1018.7 |
| 20260506163337 | 56 | 46 | 8.0 | 9.0 | 0.00 | 0.00 | 0.00 | 58 | 1018.4 |
| 20260506162832 | 56 | 20 | 6.0 | 7.0 | 0.00 | 0.00 | 0.00 | 56 | 1018.1 |
| 20260506162331 | 56 | 43 | 5.0 | 8.0 | 0.00 | 0.00 | 0.00 | 57 | 1018.0 |
| 20260506161828 | 56 | 43 | 5.0 | 6.0 | 0.00 | 0.00 | 0.00 | 59 | 1018.0 |
| 20260506161325 | 56 | 82 | 5.0 | 7.0 | 0.00 | 0.00 | 0.00 | 58 | 1017.9 |
| 20260506160818 | 56 | 344 | 4.0 | 4.0 | 0.00 | 0.00 | 0.00 | 57 | 1017.6 |
| 20260506160314 | 57 | 33 | 7.0 | 8.0 | 0.00 | 0.00 | 0.00 | 56 | 1017.3 |
| 20260506155813 | 55 | 6 | 6.0 | 7.0 | 0.00 | 0.00 | 0.00 | 58 | 1017.5 |
| 20260506155309 | 55 | 52 | 4.0 | 6.0 | 0.00 | 0.00 | 0.00 | 61 | 1017.6 |
| 20260506153421 | 55 | 34 | 4.0 | 7.0 | 0.00 | 0.00 | 0.00 | 65 | 1017.2 |
| 20260506152919 | 55 | 50 | 3.0 | 4.0 | 0.00 | 0.00 | 0.00 | 65 | 1017.2 |
| 20260506152415 | 53 | 2 | 8.0 | 9.0 | 0.00 | 0.00 | 0.00 | 66 | 1017.4 |
| 20260506151915 | 54 | 0 | 5.0 | 7.0 | 0.00 | 0.00 | 0.00 | 66 | 1017.5 |
| 20260506151411 | 53 | 35 | 8.0 | 8.0 | 0.00 | 0.00 | 0.00 | 67 | 1017.4 |
| 20260506150909 | 54 | 19 | 7.0 | 9.0 | 0.00 | 0.00 | 0.00 | 67 | 1017.2 |
| 20260506150404 | 53 | 357 | 5.0 | 7.0 | 0.00 | 0.00 | 0.00 | 70 | 1017.3 |
| 20260506145902 | 53 | 41 | 5.0 | 6.0 | 0.00 | 0.00 | 0.00 | 69 | 1017.4 |
| 20260506145358 | 53 | 16 | 5.0 | 7.0 | 0.00 | 0.00 | 0.00 | 70 | 1018.0 |
| 20260506144856 | 53 | 43 | 3.0 | 4.0 | 0.00 | 0.00 | 0.00 | 71 | 1017.2 |
| 20260506144352 | 53 | 25 | 3.0 | 4.0 | 0.00 | 0.00 | 0.00 | 72 | 1017.0 |
| 20260506143850 | 52 | 48 | 7.0 | 8.0 | 0.00 | 0.00 | 0.00 | 74 | 1016.9 |
| 20260506143347 | 52 | 20 | 10.0 | 10.0 | 0.00 | 0.00 | 0.00 | 74 | 1017.2 |
| 20260506142845 | 52 | 1 | 11.0 | 13.0 | 0.00 | 0.00 | 0.00 | 74 | 1017.2 |
| 20260506142342 | 51 | 112 | 5.0 | 7.0 | 0.00 | 0.00 | 0.00 | 75 | 1017.1 |
| 20260506141841 | 51 | 0 | 4.0 | 6.0 | 0.00 | 0.00 | 0.00 | 76 | 1017.0 |
| 20260506141339 | 51 | 1 | 6.0 | 7.0 | 0.00 | 0.00 | 0.00 | 77 | 1017.0 |
| 20260506140837 | 50 | 66 | 4.0 | 4.0 | 0.00 | 0.00 | 0.00 | 77 | 1016.9 |
| 20260506140333 | 50 | 17 | 8.0 | 10.0 | 0.00 | 0.00 | 0.00 | 78 | 1017.2 |
| 20260506135830 | 50 | 37 | 5.0 | 6.0 | 0.00 | 0.00 | 0.00 | 77 | 1017.3 |
| 20260506135327 | 50 | 43 | 4.0 | 7.0 | 0.00 | 0.00 | 0.00 | 76 | 1017.2 |
| 20260506134823 | 49 | 168 | 2.0 | 3.0 | 0.00 | 0.00 | 0.00 | 78 | 1017.3 |
| 20260506134319 | 49 | 69 | 4.0 | 4.0 | 0.00 | 0.00 | 0.00 | 78 | 1017.5 |
| 20260506133817 | 49 | 51 | 2.0 | 3.0 | 0.00 | 0.00 | 0.00 | 79 | 1017.4 |
| 20260506133314 | 48 | 17 | 3.0 | 4.0 | 0.00 | 0.00 | 0.00 | 80 | 1017.4 |
| 20260506132810 | 48 | 64 | 4.0 | 6.0 | 0.00 | 0.00 | 0.00 | 80 | 1017.2 |
| 20260506132307 | 48 | 102 | 5.0 | 6.0 | 0.00 | 0.00 | 0.00 | 81 | 1017.3 |
| 20260506131806 | 48 | 55 | 4.0 | 6.0 | 0.00 | 0.00 | 0.00 | 81 | 1017.1 |
| 20260506131301 | 48 | 51 | 5.0 | 6.0 | 0.00 | 0.00 | 0.00 | 82 | 1017.0 |
| 20260506130758 | 48 | 64 | 8.0 | 10.0 | 0.00 | 0.00 | 0.00 | 82 | 1016.9 |
| 20260506130255 | 48 | 45 | 3.0 | 3.0 | 0.00 | 0.00 | 0.00 | 83 | 1017.2 |
| 20260506125753 | 48 | 89 | 2.0 | 6.0 | 0.00 | 0.00 | 0.00 | 84 | 1017.1 |
| 20260506125251 | 47 | 41 | 7.0 | 8.0 | 0.00 | 0.00 | 0.00 | 84 | 1017.0 |
| 20260506124749 | 47 | 47 | 4.0 | 4.0 | 0.00 | 0.00 | 0.00 | 85 | 1016.8 |
| 20260506124246 | 47 | 38 | 4.0 | 6.0 | 0.00 | 0.00 | 0.00 | 85 | 1017.0 |
| 20260506123743 | 47 | 70 | 3.0 | 4.0 | 0.00 | 0.00 | 0.00 | 86 | 1016.8 |
| 20260506123242 | 47 | 13 | 6.0 | 8.0 | 0.00 | 0.00 | 0.00 | 86 | 1016.8 |
| 20260506122738 | 47 | 32 | 5.0 | 6.0 | 0.00 | 0.00 | 0.00 | 87 | 1016.8 |
| 20260506122236 | 47 | 18 | 6.0 | 8.0 | 0.00 | 0.00 | 0.00 | 87 | 1017.2 |
| 20260506121734 | 47 | 45 | 12.0 | 15.0 | 0.00 | 0.00 | 0.00 | 87 | 1016.8 |
| 20260506121230 | 47 | 68 | 6.0 | 7.0 | 0.00 | 0.00 | 0.00 | 88 | 1017.0 |
| 20260506120727 | 47 | 12 | 6.0 | 8.0 | 0.00 | 0.00 | 0.00 | 90 | 1016.7 |
| 20260506120225 | 47 | 35 | 2.0 | 3.0 | 0.00 | 0.00 | 0.00 | 90 | 1017.0 |
| 20260506115723 | 47 | 44 | 4.0 | 6.0 | 0.00 | 0.00 | 0.00 | 90 | 1017.3 |
| 20260506115221 | 47 | 23 | 4.0 | 6.0 | 0.00 | 0.00 | 0.00 | 91 | 1017.2 |
| 20260506114718 | 47 | 6 | 5.0 | 6.0 | 0.00 | 0.00 | 0.00 | 91 | 1017.2 |
| 20260506114216 | 47 | 339 | 4.0 | 4.0 | 0.00 | 0.00 | 0.00 | 92 | 1017.1 |
| 20260506113714 | 46 | 7 | 5.0 | 6.0 | 0.00 | 0.00 | 0.00 | 91 | 1017.1 |
| 20260506113211 | 46 | 21 | 6.0 | 8.0 | 0.00 | 0.00 | 0.00 | 92 | 1017.1 |
| 20260506112707 | 46 | 41 | 4.0 | 4.0 | 0.00 | 0.00 | 0.00 | 93 | 1016.8 |
| 20260506112205 | 46 | 13 | 4.0 | 4.0 | 0.00 | 0.00 | 0.00 | 93 | 1016.6 |
| 20260506111702 | 46 | 19 | 4.0 | 6.0 | 0.00 | 0.00 | 0.00 | 93 | 1016.8 |
| 20260506111201 | 46 | 22 | 3.0 | 3.0 | 0.00 | 0.00 | 0.00 | 93 | 1016.4 |
| 20260506110657 | 46 | 16 | 5.0 | 6.0 | 0.00 | 0.00 | 0.00 | 94 | 1016.4 |
| 20260506110155 | 46 | 29 | 4.0 | 6.0 | 0.00 | 0.00 | 0.00 | 94 | 1016.4 |
| 20260506105651 | 46 | 18 | 3.0 | 3.0 | 0.00 | 0.00 | 0.00 | 94 | 1016.6 |
| 20260506105148 | 46 | 24 | 5.0 | 6.0 | 0.00 | 0.00 | 0.00 | 94 | 1016.5 |
| 20260506104646 | 46 | 21 | 6.0 | 8.0 | 0.00 | 0.00 | 0.00 | 94 | 1016.4 |
| 20260506104144 | 46 | 348 | 7.0 | 8.0 | 0.00 | 0.00 | 0.00 | 94 | 1016.2 |
| 20260506103641 | 46 | 34 | 5.0 | 7.0 | 0.00 | 0.00 | 0.00 | 94 | 1015.9 |
| 20260506103137 | 46 | 6 | 8.0 | 9.0 | 0.00 | 0.00 | 0.00 | 94 | 1016.0 |
| 20260506102636 | 46 | 354 | 4.0 | 4.0 | 0.00 | 0.00 | 0.00 | 94 | 1015.9 |
| 20260506102133 | 46 | 20 | 6.0 | 7.0 | 0.00 | 0.00 | 0.00 | 94 | 1015.5 |
| 20260506101629 | 46 | 25 | 6.0 | 9.0 | 0.00 | 0.00 | 0.00 | 94 | 1015.5 |
| 20260506101126 | 46 | 15 | 6.0 | 7.0 | 0.00 | 0.00 | 0.00 | 94 | 1015.6 |
| 20260506100625 | 46 | 344 | 5.0 | 6.0 | 0.00 | 0.00 | 0.00 | 94 | 1015.5 |
| 20260506100122 | 46 | 50 | 2.0 | 2.0 | 0.00 | 0.00 | 0.00 | 94 | 1015.5 |
| 20260506095621 | 46 | 333 | 5.0 | 7.0 | 0.00 | 0.00 | 0.00 | 94 | 1015.5 |
| 20260506095117 | 46 | 17 | 5.0 | 6.0 | 0.00 | 0.00 | 0.00 | 94 | 1015.2 |
| 20260506094615 | 46 | 14 | 6.0 | 7.0 | 0.00 | 0.00 | 0.00 | 94 | 1015.1 |
| 20260506094112 | 46 | 0 | 4.0 | 6.0 | 0.00 | 0.00 | 0.00 | 94 | 1015.0 |
| 20260506093611 | 46 | 17 | 5.0 | 6.0 | 0.00 | 0.00 | 0.00 | 94 | 1014.9 |
| 20260506093108 | 46 | 2 | 6.0 | 7.0 | 0.00 | 0.00 | 0.00 | 94 | 1015.0 |
| 20260506092605 | 46 | 38 | 4.0 | 6.0 | 0.00 | 0.00 | 0.00 | 93 | 1014.8 |
| 20260506092102 | 46 | 13 | 3.0 | 3.0 | 0.00 | 0.00 | 0.00 | 93 | 1014.8 |
| 20260506091600 | 46 | 1 | 5.0 | 7.0 | 0.00 | 0.00 | 0.00 | 93 | 1015.1 |
| 20260506091057 | 46 | 27 | 3.0 | 4.0 | 0.00 | 0.00 | 0.00 | 93 | 1015.1 |
| 20260506090555 | 46 | 11 | 4.0 | 4.0 | 0.00 | 0.00 | 0.00 | 93 | 1014.9 |
| 20260506090051 | 46 | 8 | 2.0 | 3.0 | 0.00 | 0.00 | 0.00 | 93 | 1014.9 |
| 20260506085548 | 46 | 49 | 3.0 | 4.0 | 0.00 | 0.00 | 0.00 | 92 | 1014.4 |
| 20260506085044 | 46 | 32 | 3.0 | 4.0 | 0.00 | 0.00 | 0.00 | 91 | 1014.5 |
| 20260506084542 | 46 | 90 | 2.0 | 2.0 | 0.00 | 0.00 | 0.00 | 91 | 1014.3 |
| 20260506084038 | 47 | 33 | 3.0 | 3.0 | 0.00 | 0.00 | 0.00 | 90 | 1013.7 |
| 20260506083535 | 47 | 9 | 4.0 | 4.0 | 0.00 | 0.00 | 0.00 | 89 | 1013.8 |
| 20260506083032 | 47 | 30 | 4.0 | 6.0 | 0.00 | 0.00 | 0.00 | 88 | 1013.6 |
| 20260506082529 | 47 | 69 | 4.0 | 4.0 | 0.00 | 0.00 | 0.00 | 88 | 1013.3 |
| 20260506082025 | 47 | 41 | 2.0 | 3.0 | 0.00 | 0.00 | 0.00 | 88 | 1013.5 |
| 20260506081523 | 47 | 35 | 5.0 | 6.0 | 0.00 | 0.00 | 0.00 | 88 | 1013.3 |
| 20260506081020 | 47 | 26 | 3.0 | 3.0 | 0.00 | 0.00 | 0.00 | 89 | 1013.8 |
| 20260506080518 | 47 | 102 | 2.0 | 2.0 | 0.00 | 0.00 | 0.00 | 89 | 1013.5 |
| 20260506073501 | 47 | 37 | 4.0 | 6.0 | 0.00 | 0.00 | 0.00 | 87 | 1013.5 |
| 20260506072958 | 47 | 14 | 4.0 | 4.0 | 0.00 | 0.00 | 0.00 | 88 | 1013.2 |
| 20260506072455 | 47 | 341 | 5.0 | 6.0 | 0.00 | 0.00 | 0.00 | 88 | 1013.2 |
| 20260506071953 | 47 | 15 | 5.0 | 6.0 | 0.00 | 0.00 | 0.00 | 88 | 1012.9 |
| 20260506071451 | 47 | 35 | 4.0 | 6.0 | 0.00 | 0.00 | 0.00 | 89 | 1012.6 |
| 20260506070947 | 47 | 29 | 8.0 | 9.0 | 0.00 | 0.00 | 0.00 | 89 | 1012.9 |
| 20260506070445 | 47 | 6 | 5.0 | 6.0 | 0.00 | 0.00 | 0.00 | 89 | 1013.1 |
| 20260506062422 | 48 | 44 | 4.0 | 6.0 | 0.00 | 0.00 | 0.00 | 83 | 1013.6 |
| 20260506061918 | 48 | 42 | 6.0 | 7.0 | 0.00 | 0.00 | 0.00 | 82 | 1013.5 |
| 20260506061415 | 48 | 49 | 7.0 | 9.0 | 0.00 | 0.00 | 0.00 | 82 | 1014.1 |
| 20260506060913 | 48 | 46 | 5.0 | 7.0 | 0.00 | 0.00 | 0.00 | 82 | 1013.9 |
| 20260506060411 | 48 | 39 | 5.0 | 6.0 | 0.00 | 0.00 | 0.00 | 82 | 1014.2 |